This is the latest recevied weather packets stored in our database for station/object DB0OHA-13. If no packets are shown the sender has not sent any weather packets the latest 10 day(s).
| Time | Temp. | Humidity | Pressure | Rain* | Wind** | Luminosity | Snow |
|---|---|---|---|---|---|---|---|
| 1777839672 | 18.33° C | 51% | 1012 hPa | 0 mm | - | 0 W/m² | - |
| 1777839071 | 18.33° C | 51% | 1012.1 hPa | 0 mm | - | 0 W/m² | - |
| 1777838471 | 18.33° C | 51% | 1012.1 hPa | 0 mm | - | 0 W/m² | - |
| 1777837871 | 18.33° C | 51% | 1012.1 hPa | 0 mm | - | 0 W/m² | - |
| 1777837271 | 18.33° C | 50% | 1012 hPa | 0 mm | - | 0 W/m² | - |
| 1777836671 | 18.33° C | 50% | 1011.8 hPa | 0 mm | - | 0 W/m² | - |
| 1777836071 | 18.89° C | 50% | 1011.8 hPa | 0 mm | - | 0 W/m² | - |
| 1777835470 | 18.89° C | 49% | 1011.7 hPa | 0 mm | - | 0 W/m² | - |
| 1777834871 | 19.44° C | 47% | 1011.7 hPa | 0 mm | - | 0 W/m² | - |
| 1777834271 | 19.44° C | 47% | 1011.5 hPa | 0 mm | - | 0 W/m² | - |
| 1777833671 | 19.44° C | 46% | 1011.3 hPa | 0 mm | - | 0 W/m² | - |
| 1777833070 | 20° C | 45% | 1011.2 hPa | 0 mm | - | 7 W/m² | - |
| 1777832470 | 20° C | 45% | 1011.2 hPa | 0 mm | - | 10 W/m² | - |
| 1777831870 | 20° C | 45% | 1011 hPa | 0 mm | - | 14 W/m² | - |
| 1777830670 | 20° C | 48% | 1010.9 hPa | 0 mm | - | 31 W/m² | - |
| 1777830070 | 20° C | 46% | 1010.8 hPa | 0 mm | - | 46 W/m² | - |
| 1777829470 | 20° C | 50% | 1010.7 hPa | 0 mm | - | 43 W/m² | - |
| 1777828870 | 20.56° C | 46% | 1010.7 hPa | 0 mm | - | 60 W/m² | - |
| 1777828269 | 20.56° C | 44% | 1010.6 hPa | 0 mm | - | 77 W/m² | - |
| 1777827670 | 20.56° C | 41% | 1010.6 hPa | 0 mm | - | 73 W/m² | - |
| 1777827069 | 21.11° C | 39% | 1010.7 hPa | 0 mm | - | 91 W/m² | - |
| 1777826469 | 21.11° C | 39% | 1010.7 hPa | 0 mm | - | 99 W/m² | - |
| 1777825870 | 21.11° C | 39% | 1010.8 hPa | 0 mm | - | 81 W/m² | - |
| 1777825269 | 21.67° C | 39% | 1011.2 hPa | 0 mm | - | 76 W/m² | - |
| 1777824069 | 21.67° C | 39% | 1011.3 hPa | 0 mm | - | 177 W/m² | - |
* Rain latest hour (hover to see other rain measurements)
** Current wind speed in m/s (hover to see current wind gust speed)